Regional Weather Roundup
Issued by NWS Newport/Morehead, NC

Current Version | Previous Version | Graphics & Text | Print | Product List | Glossary Off
Versions: 1 2 3 4 5 6 7 8 9 10 11 12 13 14 15 16 17 18 19 20 21 22 23 24 25 26 27 28 29 30 31 32 33 34 35 36 37 38 39 40 41 42 43 44 45 46 47 48 49 50
674 ASUS42 KMHX 201913 RWRMHX WEATHER ROUNDUP FOR EASTERN NORTH CAROLINA NATIONAL WEATHER SERVICE NEWPORT/MOREHEAD CITY NC 300 PM EDT WED SEP 20 2017 NOTE: "FAIR" INDICATES FEW OR NO CLOUDS BELOW 12,000 FEET WITH NO SIGNIFICANT WEATHER AND/OR OBSTRUCTIONS TO VISIBILITY NCZ015>017-031-032-045>047-102-103-202000- NORTH COAST CITY SKY/WX TMP DP RH WIND PRES REMARKS EDENTON SUNNY 87 69 53 CALM 29.94F ELIZABETH CITY SUNNY 87 65 47 NW13 29.93F KITTY HAWK CLEAR 82 64 55 CALM 29.92S MANTEO SUNNY 82 67 59 NW8G16 29.94S $$ NCZ045>047-081-094-103-104-202000- CENTRAL COAST CITY SKY/WX TMP DP RH WIND PRES REMARKS FRISCO SUNNY 84 72 67 W8 29.94F $$ NCZ095-097-098-100-101-202000- SOUTHERN COAST CITY SKY/WX TMP DP RH WIND PRES REMARKS BEAUFORT SUNNY 85 73 67 SW10 29.95F CEDAR ISLAND NOT AVBL JACKSONVILLE MOSUNNY 89 70 53 W8G16 29.95F PINEY ISLAND N/A N/A N/A N/A W9 29.94F WILMINGTON SUNNY 90 65 43 W10 29.96F $$ NCZ011>013-027>030-043-044-078>080-089-090>093-098-202000- COASTAL PLAIN CITY SKY/WX TMP DP RH WIND PRES REMARKS AHOSKIE N/A 84 69 60 CALM 29.94F CLINTON SUNNY 89 70 51 W6 29.97F ELIZABETHTOWN NOT AVBL GOLDSBORO SUNNY 89 69 52 W7 29.94F GREENVILLE MOSUNNY 88 70 55 W8 29.96F HAVELOCK SUNNY 89 68 49 W6 29.96F KENANSVILLE SUNNY 88 68 51 W6 29.96F KINSTON MOSUNNY 88 66 48 NW8 29.96F NEW BERN SUNNY 89 68 49 W7 29.96F RICHLANDS MOSUNNY 89 69 51 VRB3 29.96F ROCKY MOUNT MOSUNNY 87 69 54 N6 29.95F WASHINGTON PTSUNNY 87 68 53 W7 29.95S WHITEVILLE MOSUNNY 88 66 48 CALM 29.98F $$ AMZ130-135-150-152-154-156-158-170-250-252-270-ANZ085-086-088-633-658-670-202000- MARINE OBSERVATIONS STATION/POSITION TIME TEMP WIND PRES WAVE SWELL AIR SEA DIR/SP/G HT/PER HT/PER (UTC) (F) (DEG/KT/KT) (MB) (FT/S) (FT/S) CHESAPEAKE LIGHT NOT AVBL 64 E VA BEACH 1850 71 71 310/ 12/ 16 1013.0 8/10 8/10 DUCK 1848 82 75 330/ 14/ 17 1012.8 2 E DUCK 1830 76 N/A 6/10 3/11 OREGON INLET 1836 82 74 290/ 10/ 15 1013.3 13E OREGON INLT 1848 74 N/A 7/11 7/11 HATTERAS CG 1848 80 75 280/ 10/ 12 1013.9 DIAMOND BUOY 1850 77 76 270/ 6/ 8 1014.2 5/10 5/10 CAPE LOOKOUT 1900 82 230/ 10/ 12 1014.1 BEAUFORT LAB 1848 83 74 220/ 6/ 10 1013.8 30 SE NEW RVR IN 1808 80 260/ 8/ 12 1015.3 30 SE NEW RVR IN NOT AVBL 27 SE WRIGHTSVLE 1808 80 80 230/ 6/ 10 1015.7 5 SE WRIGHTSVLE 1808 81 79 160/ 4/ 6 1015.2 225 S CAPE HAT 1850 80 81 290/ 6/ 8 1015.8 8/11 7/11 41 SE CHARLESTON 1850 80 82 250/ 4/ 6 1015.6 4/11 3/11 $$

USA.gov is the U.S. government's official web portal to all federal, state and local government web resources and services.